Powrót do katalogu

COSMOS 2230

AktywnyNawigacjaPO
NORAD 22307·PAYLOAD·🇷🇺 Russia

Wystrzelony Jan 12, 1993 z Plesetsk Cosmodrome

Loading…

Następne Przeloty (najbliższe 24 godziny)

TLE

ŚwieżeSource: Space-Track

Epoka: Sep 14, 2026, 15:18 UTC

1 22307U 93001A   26257.63796736  .00000070  00000-0  58288-4 0  9998
2 22307  82.9402 222.3366 0023008 276.7011 256.8768 13.73899538679361

Śledź COSMOS 2230 w czasie rzeczywistym z AllMySat

Download on the App Store